Header for Extended Forecast Station List Page

Search by: ID | Name | Date | Parm | Value | Avg | % Avg
Sort by: ID | Name | Date | Parm | Value | Avg | % Avg

Enter search or view all records.

Click on id for station plot
#IDNameDateParmValueAvg% Avg
0HWRI1BIG LOST-AT HOWELL RANCH NEAR CHILLY01-23-2023DISCHARGE (KAF)264263
1MACI1BIG LOST-MACKAY RESERVOIR NEAR MACKAY01-23-2023INFLOW (KAF)314078
2HALI1BIG WOOD-AT HAILEY01-23-2023DISCHARGE (KAF)569062
3MAGI1BIG WOOD-MAGIC DAM01-23-2023INFLOW (KAF)8010675
4BITM8BITTERROOT-NEAR MISSOULA01-23-2023DISCHARGE (KAF)24752547
5BONM8BLACKFOOT-NEAR BONNER01-23-2023DISCHARGE (KAF)32640481
6BIGI1BOISE-AT GLENWOOD BRIDGE01-23-2023DISCHARGE (KAF)310153202
7LUCI1BOISE-LUCKY PEAK DAM01-23-2023INFLOW (KAF)780655119
8PARI1BOISE-NEAR PARMA01-23-2023DISCHARGE (KAF)379230164
9HOTI1BRUNEAU-NEAR HOT SPRINGS01-23-2023DISCHARGE (KAF)6810267
10BULO3BULLY CREEK-BULLY CREEK DAM01-23-2023INFLOW (KAF)535992
11BUDW1BUMPING-BUMPING LAKE DAM01-23-2023INFLOW (KAF)6768100
12CHDW1CHELAN-LAKE CHELAN DAM01-23-2023INFLOW (KAF)29746963
13ABOM8CLARK FORK-ABOVE MISSOULA01-23-2023DISCHARGE (KAF)52472472
14DLGM8CLARK FORK-AT DEER LODGE01-23-2023DISCHARGE (KAF)426070
15SRGM8CLARK FORK-AT ST REGIS01-23-2023DISCHARGE (KAF)1035171760
16BELM8CLARK FORK-BELOW MISSOULA01-23-2023DISCHARGE (KAF)772127760
17CABI1CLARK FORK-CABINET GORGE DAM01-23-2023INFLOW (KAF)3427540663
18NOXM8CLARK FORK-NOXON RAPIDS DAM01-23-2023INFLOW (KAF)3072473765
19DRMM8CLARK FORK-NR DRUMMOND01-23-2023DISCHARGE (KAF)11916572
20CLUW1CLE ELUM-CLE ELUM LAKE01-23-2023INFLOW (KAF)232230101
21ORFI1CLEARWATER-AT OROFINO01-23-2023DISCHARGE (KAF)2382277586
22SPDI1CLEARWATER-AT SPALDING01-23-2023DISCHARGE (KAF)3889448887
23COEI1COEUR D ALENE-COEUR D ALENE LAKE01-23-2023INFLOW (KAF)2122239189
24CIBW1COLUMBIA-AT INTL BOUNDARY01-23-2023DISCHARGE (KAF)141302007470
25BONO3COLUMBIA-BONNEVILLE DAM01-23-2023INFLOW (KAF)346184850771
26CHJW1COLUMBIA-CHIEF JOSEPH DAM01-23-2023INFLOW (KAF)180532571970
27GCDW1COLUMBIA-GRAND COULEE DAM01-23-2023INFLOW (KAF)170842346173
28JDAO3COLUMBIA-JOHN DAY DAM01-23-2023INFLOW (KAF)330284595072
29MCDW1COLUMBIA-MCNARY DAM01-23-2023INFLOW (KAF)310514384771
30PRWW1COLUMBIA-PRIEST RAPIDS DAM01-23-2023INFLOW (KAF)195922862668
31RRHW1COLUMBIA-ROCKY REACH DAM01-23-2023INFLOW (KAF)190472762669
32TDAO3COLUMBIA-THE DALLES DAM01-23-2023INFLOW (KAF)335274645972
33WANW1COLUMBIA-WANAPUM DAM01-23-2023INFLOW (KAF)195942855769
34WELW1COLUMBIA-WELLS DAM01-23-2023INFLOW (KAF)187112705369
35DEDI1DEADWOOD-NEAR LOWMAN01-23-2023INFLOW (KAF)546484
36MODO3DESCHUTES-AT MOODY NR BIGGS01-23-2023DISCHARGE (KAF)14961465102
37ARDW1ENTIAT-NEAR ARDENVOIR01-23-2023DISCHARGE (KAF)497764
38CHEI1FALL RIVER-NEAR CHESTER01-23-2023DISCHARGE (KAF)17020284
39CFMM8FLATHEAD-AT COLUMBIA FALLS01-23-2023DISCHARGE (KAF)1645217776
40KERM8FLATHEAD-SELI’Š KSANKA QLISPE’ DAM01-23-2023INFLOW (KAF)1852278666
41TRYO3GRANDE RONDE-TROY01-23-2023DISCHARGE (KAF)993105394
42REXI1HENRYS FORK-AT REXBURG01-23-2023DISCHARGE (KAF)46554785
43ANTI1HENRYS FORK-AT ST. ANTHONY01-23-2023DISCHARGE (KAF)43450186
44IPDI1HENRYS FORK-ISLAND PARK DAM01-23-2023INFLOW (KAF)11514182
45HODO3HOOD-NEAR TUCKER BRIDGE01-23-2023DISCHARGE (KAF)280268105
46SERO3JOHN DAY-AT SERVICE CK01-23-2023DISCHARGE (KAF)57777874
47KADW1KACHESS-KACHESS DAM01-23-2023INFLOW (KAF)8884105
48LAUW1KETTLE-AT LAURIER01-23-2023DISCHARGE (KAF)57597259
49PITW1KLICKITAT-NEAR PITT01-23-2023DISCHARGE (KAF)47949397
50BFEI1KOOTENAI-AT BONNERS FERRY01-23-2023STAGE (FT)MMM
51LEOI1KOOTENAI-AT LEONIA01-23-2023DISCHARGE (KAF)25442352108
52LYDM8KOOTENAI-LIBBY DAM01-23-2023INFLOW (KAF)1386192472
53LWRI1LITTLE WOOD-LITTLE WOOD DAM01-23-2023INFLOW (KAF)4837130
54BERO3MALHEUR-AGENCY VALLEY DAM01-23-2023INFLOW (KAF)4747100
55WRMO3MALHEUR-WARM SPRINGS DAM01-23-2023INFLOW (KAF)697691
56MYKO3MCKAY CREEK-NEAR PILOT ROCK01-23-2023DISCHARGE (KAF)344478
57PATW1METHOW-NEAR PATEROS01-23-2023DISCHARGE (KAF)24339162
58WGCM8MF FLATHEAD-NEAR WEST GLACIER01-23-2023DISCHARGE (KAF)40962865
59CLFW1NACHES-NEAR CLIFFDEL01-23-2023DISCHARGE (KAF)20525082
60NACW1NACHES-NEAR NACHES01-23-2023DISCHARGE (KAF)28435979
61DWRI1NF CLEARWATER-DWORSHAK DAM01-23-2023INFLOW (KAF)18641867100
62FCFM8NF FLATHEAD-NEAR COLUMBIA FALLS01-23-2023DISCHARGE (KAF)36766056
63MONO3NF JOHN DAY-AT MONUMENT01-23-2023DISCHARGE (KAF)41054176
64CSDI1NF PAYETTE-CASCADE DAM01-23-2023INFLOW (KAF)22729278
65TONW1OKANOGAN-NEAR TONASKET01-23-2023DISCHARGE (KAF)43774759
66OWYO3OWYHEE-OWYHEE DAM01-23-2023INFLOW (KAF)471254185
67EMMI1PAYETTE-NEAR EMMETT01-23-2023DISCHARGE (KAF)59576877
68ALFW1PEND OREILLE-ALBENI FALLS DAM01-23-2023INFLOW (KAF)4478638270
69HOPI1PEND OREILLE-PEND OREILLE LAKE NR HOPE01-23-2023LAKE ELEVATION (FT)MMM
70PIHI1PORTNEUF-AT POCATELLO01-23-2023DISCHARGE (KAF)737399
71PRTI1PRIEST-NEAR PRIEST RIVER01-23-2023DISCHARGE (KAF)42951883
72RCCM8ROCK CREEK-NEAR CLINTON01-23-2023DISCHARGE (KAF)6011453
73WHBI1SALMON-AT WHITEBIRD01-23-2023DISCHARGE (KAF)1756270065
74ARAI1SF BOISE-ANDERSON RANCH DAM01-23-2023INFLOW (KAF)272260105
75HHWM8SF FLATHEAD-HUNGRY HORSE DAM01-23-2023INFLOW (KAF)70989579
76PLDI1SF SNAKE-PALISADES DAM01-23-2023INFLOW (KAF)925119677
77SIFI1SNAKE-AB EAGLE ROCK NR IDAHO FALLS01-23-2023DISCHARGE (KAF)12691158110
78AFRI1SNAKE-AMERICAN FALLS RESERVOIR01-23-2023INFLOW (KAF)16391497109
79SNAI1SNAKE-AT BLACKFOOT01-23-2023DISCHARGE (KAF)1017849120
80MILI1SNAKE-AT MILNER01-23-2023DISCHARGE (KAF)485488
81WEII1SNAKE-AT WEISER01-23-2023DISCHARGE (KAF)3399367692
82SWAI1SNAKE-BELOW SWAN FALLS01-23-2023DISCHARGE (KAF)1767189593
83BRNI1SNAKE-BROWNLEE DAM01-23-2023INFLOW (KAF)3797407193
84IHDW1SNAKE-ICE HARBOR DAM01-23-2023INFLOW (KAF)105511405575
85JLKW4SNAKE-JACKSON LAKE AT DAM01-23-2023INFLOW (KAF)25430384
86LGSW1SNAKE-LITTLE GOOSE DAM01-23-2023INFLOW (KAF)102431386574
87LGDW1SNAKE-LOWER GRANITE DAM01-23-2023INFLOW (KAF)102401381674
88LMNW1SNAKE-LOWER MONUMENTAL DAM01-23-2023INFLOW (KAF)105441403975
89ALPW4SNAKE-NEAR ALPINE01-23-2023DISCHARGE (KAF)53072273
90ANAW1SNAKE-NEAR ANATONE01-23-2023DISCHARGE (KAF)6349896071
91BFTI1SNAKE-NEAR BLACKFOOT01-23-2023DISCHARGE (KAF)1000846118
92HEII1SNAKE-NEAR HEISE01-23-2023DISCHARGE (KAF)12161140107
93JKSW4SNAKE-NEAR JACKSON01-23-2023DISCHARGE (KAF)39655671
94SHYI1SNAKE-NEAR SHELLEY01-23-2023DISCHARGE (KAF)11991118107
95LLKW1SPOKANE-AT LONGLAKE01-23-2023INFLOW (KAF)2274275683
96SPOW1SPOKANE-AT SPOKANE01-23-2023DISCHARGE (KAF)1936242180
97SJMI1ST JOE-AT ST MARIES01-23-2023STAGE (FT)MMM
98SATI1ST MARIES-NEAR SANTA01-23-2023DISCHARGE (KAF)138133104
99STRM8ST. REGIS-NEAR ST. REGIS01-23-2023DISCHARGE (KAF)12017369
100TNAW1TEANAWAY-BELOW FORKS01-23-2023DISCHARGE (KAF)127120106
101TEAI1TETON-NEAR ST. ANTHONY01-23-2023DISCHARGE (KAF)13116679
102RILW1TIETON-RIMROCK LAKE NEAR RIMROCK01-23-2023INFLOW (KAF)10711990
103PDTO3UMATILLA-AT PENDLETON01-23-2023DISCHARGE (KAF)19920398
104GIBO3UMATILLA-NEAR GIBBON01-23-2023DISCHARGE (KAF)869096
105UMAO3UMATILLA-NEAR UMATILLA01-23-2023DISCHARGE (KAF)17118294
106TCHW1WALLA WALLA-NEAR TOUCHET01-23-2023DISCHARGE (KAF)233231101
107WSRI1WEISER-NEAR WEISER01-23-2023DISCHARGE (KAF)36637598
108PESW1WENATCHEE-AT PESHASTIN01-23-2023DISCHARGE (KAF)55872277
109UNDW1WHITE SALMON-NEAR UNDERWOOD01-23-2023DISCHARGE (KAF)339340100
110RIDI1WILLOW CREEK-RIRIE DAM01-23-2023INFLOW (KAF)3734109
111EASW1YAKIMA-AT EASTON01-23-2023DISCHARGE (KAF)849984
112KIOW1YAKIMA-AT KIONA01-23-2023DISCHARGE (KAF)767101076
113UMTW1YAKIMA-AT UMTANUM01-23-2023DISCHARGE (KAF)48753691
114KEDW1YAKIMA-KEECHELUS LAKE01-23-2023INFLOW (KAF)10088113
115PARW1YAKIMA-NEAR PARKER01-23-2023DISCHARGE (KAF)48769470